Tracking 19709 objects as of 17-Jun-2019
HD Live streaming from Space Station
objects crossing your sky now

COSMOS 1437

Track COSMOS 1437 now!
10-day predictions
COSMOS 1437 is classified as:


NORAD ID: 13770
Int'l Code: 1983-003A
Perigee: 391.7 km
Apogee: 398.8 km
Inclination: 81.2 °
Period: 92.3 minutes
Semi major axis: 6766 km
RCS: 7.8902 m2 (large)
Launch date: January 20, 1983
Source: Commonwealth of Independent States (former USSR) (CIS)
Launch site: PLESETSK MISSILE AND SPACE COMPLEX (PKMTR)
aabbcc
Your satellite tracking list
Your tracking list is empty




NASA's NSSDC Master Catalog

Two Line Element Set (TLE):
1 13770U 83003A   19168.19362057  .00003984  00000-0  49138-4 0  9993
2 13770  81.1548 326.0603 0005205 170.0695 190.0661 15.59847360    20
Source of the keplerian elements: AFSPC